Date String (YYYY-MM-DD hh:mm:ss) UTC,Instrument flags,Ambient pressure (hPa),Sample flow (lpm),Bypass flow (lpm),Sample temperature (°C),Ambient temperature (°C),ASC tube jacket temperature (°C),LED temperature (°C),Box temperature (°C),Sample RH (%),Span deviation,Mass concentration (μg/m³),Mass concentration (μg/m³),Mass concentration (μg/m³)
DateTimeUTC,F1_M11,P_M11,Q1_M11,Q2_M11,T1_M11,T2_M11,T3_M11,T4_M11,T5_M11,U1_M11,ZSPAN_M11,X0_M11,X2_M11,X1_M11
2022-06-26 21:00:00,,0835.6,5.01,0.00,29.5,27.8,00.0,38.5,31.2,23.0,0000.8,0016.02,0006.18,0005.40
2022-06-26 21:01:00,,0835.6,5.00,0.00,29.5,27.9,00.0,38.4,31.2,23.1,0000.4,0016.77,0006.20,0005.38
2022-06-26 21:02:00,,0835.8,5.00,0.00,29.5,28.0,00.0,38.4,31.2,23.0,0000.8,0016.15,0006.19,0005.34
2022-06-26 21:03:00,,0835.9,5.01,0.00,29.5,28.0,00.0,38.4,31.2,22.6,0000.9,0015.87,0006.19,0005.32
2022-06-26 21:04:00,,0836.0,5.01,0.00,29.5,28.1,00.0,38.4,31.2,22.8,0001.1,0016.32,0006.19,0005.28
2022-06-26 21:05:00,,0836.2,4.99,0.00,29.5,28.2,00.0,38.4,31.3,22.5,0001.0,0016.41,0006.22,0005.26
2022-06-26 21:06:00,,0836.3,5.01,0.00,29.5,28.2,00.0,38.4,31.3,22.4,0001.1,0016.24,0006.18,0005.24
2022-06-26 21:07:00,,0836.3,4.99,0.00,29.5,28.3,00.0,38.4,31.3,22.5,0001.3,0015.84,0006.13,0005.21
2022-06-26 21:08:00,,0836.3,5.01,0.00,29.5,28.4,00.0,38.4,31.4,22.5,0001.8,0015.75,0006.08,0005.17
2022-06-26 21:09:00,,0836.3,5.01,0.00,29.5,28.4,00.0,38.4,31.4,22.7,0001.4,0015.22,0006.03,0005.13
2022-06-26 21:10:00,,0836.3,4.99,0.00,29.5,28.5,00.0,38.4,31.4,22.6,0001.3,0014.54,0005.98,0005.09
2022-06-26 21:11:00,,0836.3,5.01,0.00,29.5,28.5,00.0,38.4,31.4,22.4,0001.1,0014.07,0006.03,0005.09
2022-06-26 21:12:00,,0836.3,5.01,0.00,29.6,28.6,00.0,38.4,31.4,22.6,0001.2,0013.33,0006.00,0005.07
2022-06-26 21:13:00,,0836.3,5.01,0.00,29.6,28.6,00.0,38.4,31.4,22.6,0001.0,0013.62,0006.00,0005.08
2022-06-26 21:14:00,,0836.4,5.01,0.00,29.6,28.6,00.0,38.4,31.4,22.6,0000.6,0013.38,0006.00,0005.09
2022-06-26 21:15:00,,0836.4,4.99,0.00,29.6,28.6,00.0,38.4,31.5,22.6,0000.4,0012.99,0006.02,0005.10
2022-06-26 21:16:00,,0836.5,4.99,0.00,29.6,28.7,00.0,38.4,31.5,22.5,0000.8,0012.77,0005.99,0005.09
2022-06-26 21:17:00,,0836.5,5.01,0.00,29.6,28.7,00.0,38.5,31.5,22.3,0000.6,0012.34,0005.97,0005.07
2022-06-26 21:18:00,,0836.5,5.00,0.00,29.7,28.7,00.0,38.5,31.5,22.2,0000.0,0012.70,0005.97,0005.07
2022-06-26 21:19:00,,0836.5,4.99,0.00,29.7,28.7,00.0,38.5,31.6,22.0,-000.2,0012.82,0006.01,0005.09
2022-06-26 21:20:00,,0836.4,4.99,0.00,29.7,28.8,00.0,38.5,31.6,22.1,0000.3,0012.57,0006.01,0005.11
2022-06-26 21:21:00,,0836.5,5.01,0.00,29.7,28.8,00.0,38.5,31.6,22.3,0000.3,0013.32,0006.05,0005.11
2022-06-26 21:22:00,,0836.5,5.01,0.00,29.7,28.9,00.0,38.5,31.6,22.2,0000.2,0013.48,0005.99,0005.09
2022-06-26 21:23:00,,0836.6,5.00,0.00,29.8,28.9,00.0,38.5,31.7,22.0,0000.4,0013.66,0005.97,0005.10
2022-06-26 21:24:00,,0836.6,4.99,0.00,29.8,28.9,00.0,38.6,31.7,22.1,0000.6,0014.38,0005.98,0005.12
2022-06-26 21:25:00,,0836.6,5.00,0.00,29.8,28.9,00.0,38.6,31.7,22.0,0000.7,0014.45,0005.96,0005.12
2022-06-26 21:26:00,,0836.6,5.00,0.00,29.8,29.0,00.0,38.6,31.7,21.9,0000.0,0014.28,0005.95,0005.14
2022-06-26 21:27:00,,0836.7,4.99,0.00,29.8,29.0,00.0,38.6,31.8,22.1,0000.0,0013.97,0005.99,0005.17
2022-06-26 21:28:00,,0836.7,5.00,0.00,29.9,29.0,00.0,38.6,31.7,22.0,0000.0,0014.43,0006.01,0005.18
2022-06-26 21:29:00,,0836.7,5.01,0.00,29.9,29.0,00.0,38.6,31.8,21.9,0000.0,0014.94,0006.02,0005.20
2022-06-26 21:30:00,,0836.7,4.98,0.00,29.9,29.1,00.0,38.7,31.8,21.9,0000.0,0014.93,0005.99,0005.21
2022-06-26 21:31:00,,0836.8,5.01,0.00,29.9,29.1,00.0,38.7,31.8,21.9,0000.0,0015.06,0005.97,0005.21
2022-06-26 21:32:00,,0836.8,5.00,0.00,30.0,29.1,00.0,38.7,31.9,21.7,0000.0,0014.61,0005.92,0005.23
2022-06-26 21:33:00,,0836.9,4.99,0.00,30.0,29.1,00.0,38.7,31.9,21.6,0000.5,0014.66,0005.96,0005.28
2022-06-26 21:34:00,,0836.9,5.01,0.00,30.0,29.2,00.0,38.7,31.9,21.6,0000.7,0014.51,0006.03,0005.31
2022-06-26 21:35:00,,0837.0,5.01,0.00,30.0,29.2,00.0,38.8,31.9,21.6,0000.7,0013.98,0006.06,0005.32
2022-06-26 21:36:00,,0837.0,4.98,0.00,30.0,29.0,00.0,38.7,31.9,21.7,0001.0,0013.72,0006.08,0005.33
2022-06-26 21:37:00,,0837.0,4.99,0.00,30.0,28.2,00.0,38.7,31.7,21.8,0001.2,0013.98,0006.08,0005.32
2022-06-26 21:38:00,,0837.0,5.00,0.00,29.9,27.7,00.0,38.6,31.5,21.9,0001.4,0014.25,0006.10,0005.33
2022-06-26 21:39:00,,0837.0,5.00,0.00,29.8,27.6,00.0,38.6,31.5,22.0,0001.5,0014.88,0006.11,0005.35
2022-06-26 21:40:00,,0837.0,5.01,0.00,29.8,27.7,00.0,38.6,31.4,22.3,0001.4,0014.29,0006.14,0005.37
2022-06-26 21:41:00,,0837.0,5.00,0.00,29.7,27.8,00.0,38.6,31.5,22.5,0001.3,0014.33,0006.19,0005.38
2022-06-26 21:42:00,,0836.9,5.00,0.00,29.7,27.9,00.0,38.6,31.5,22.6,0001.4,0014.63,0006.22,0005.38
2022-06-26 21:43:00,,0836.9,5.01,0.00,29.7,28.1,00.0,38.6,31.5,22.5,0001.4,0015.26,0006.27,0005.40
2022-06-26 21:44:00,,0836.9,5.00,0.00,29.7,28.2,00.0,38.6,31.5,22.5,0001.5,0015.36,0006.27,0005.40
2022-06-26 21:45:00,,0836.9,5.00,0.00,29.7,28.3,00.0,38.6,31.6,22.4,0001.6,0014.91,0006.32,0005.41
2022-06-26 21:46:00,,0836.9,5.01,0.00,29.7,28.4,00.0,38.6,31.6,22.5,0001.1,0014.49,0006.34,0005.42
2022-06-26 21:47:00,,0836.9,5.00,0.00,29.7,28.5,00.0,38.6,31.6,22.6,0001.0,0014.38,0006.40,0005.44
2022-06-26 21:48:00,,0836.9,4.98,0.00,29.8,28.6,00.0,38.6,31.6,22.6,0000.9,0015.29,0006.43,0005.45
2022-06-26 21:49:00,,0836.9,5.00,0.00,29.8,28.7,00.0,38.6,31.7,22.6,0000.3,0015.56,0006.40,0005.46
2022-06-26 21:50:00,,0836.9,5.01,0.00,29.8,28.7,00.0,38.6,31.7,22.5,0000.1,0014.51,0006.40,0005.46
2022-06-26 21:51:00,,0836.8,5.00,0.00,29.8,28.8,00.0,38.6,31.7,22.5,0000.3,0014.63,0006.42,0005.48
2022-06-26 21:52:00,,0836.8,4.98,0.00,29.8,28.8,00.0,38.6,31.7,22.7,0000.7,0014.82,0006.40,0005.47
2022-06-26 21:53:00,,0836.7,5.00,0.00,29.8,28.9,00.0,38.6,31.7,22.6,0000.9,0014.61,0006.39,0005.47
2022-06-26 21:54:00,,0836.7,5.01,0.00,29.9,28.9,00.0,38.6,31.7,22.3,0001.0,0014.10,0006.41,0005.49
2022-06-26 21:55:00,,0836.7,5.00,0.00,29.9,28.9,00.0,38.6,31.7,22.4,0001.0,0013.75,0006.39,0005.51
2022-06-26 21:56:00,,0836.8,5.01,0.00,29.9,29.0,00.0,38.7,31.8,22.5,0000.9,0013.77,0006.37,0005.49
2022-06-26 21:57:00,,0836.9,5.00,0.00,29.9,29.0,00.0,38.7,31.8,22.2,0001.1,0013.84,0006.39,0005.49
2022-06-26 21:58:00,,0836.8,4.99,0.00,29.9,29.0,00.0,38.7,31.8,22.1,0001.4,0013.93,0006.40,0005.52
2022-06-26 21:59:00,,0836.8,4.99,0.00,29.9,29.0,00.0,38.7,31.9,22.1,0001.5,0012.88,0006.43,0005.54
